EW9030 Weather Reports


Display with metric or nautical units.
time (UTC)temp
F
wind
direction
speed
MPH
gust
MPH
rain 1hr
in
rain 24hr
in
rain mn
in
humidity
%
barometer
mb
20260508023311 47 234 1.0 3.0 0.00 0.00 0.00 44 1020.2
20260508022808 47 234 1.0 3.0 0.00 0.00 0.00 43 1020.2
20260508022541 47 234 0.0 3.0 0.00 0.00 0.00 42 1020.2
20260508021808 47 234 1.0 3.0 0.00 0.00 0.00 41 1020.1
20260508021308 47 234 1.0 3.0 0.00 0.00 0.00 41 1020.1
20260508021039 48 234 1.0 5.0 0.00 0.00 0.00 41 1019.9
20260508020311 48 234 2.0 5.0 0.00 0.00 0.00 40 1019.9
20260508015808 48 229 2.0 5.0 0.00 0.00 0.00 40 1019.8
20260508015309 48 259 2.0 5.0 0.00 0.00 0.00 40 1019.8
20260508014809 49 259 2.0 5.0 0.00 0.00 0.00 39 1019.8
20260508014309 49 267 2.0 6.0 0.00 0.00 0.00 38 1019.7
20260508013808 49 212 2.0 6.0 0.00 0.00 0.00 37 1019.8
20260508013543 50 261 3.0 10.0 0.00 0.00 0.00 37 1019.7
20260508012809 50 245 4.0 12.0 0.00 0.00 0.00 36 1019.7
20260508012309 50 253 3.0 12.0 0.00 0.00 0.00 36 1019.7
20260508011808 51 214 3.0 11.0 0.00 0.00 0.00 36 1019.5
20260508011309 51 267 4.0 12.0 0.00 0.00 0.00 36 1019.4
20260508010808 51 257 7.0 15.0 0.00 0.00 0.00 36 1019.4
20260508010539 51 237 7.0 15.0 0.00 0.00 0.00 35 1019.3
20260508005809 52 273 5.0 10.0 0.00 0.00 0.00 35 1019.5
20260508005309 52 226 5.0 11.0 0.00 0.00 0.00 36 1019.4
20260508004808 51 254 6.0 11.0 0.00 0.00 0.00 36 1019.4
20260508004541 52 238 5.0 10.0 0.00 0.00 0.00 35 1019.4
20260508003809 53 264 5.0 10.0 0.00 0.00 0.00 35 1019.4
20260508003311 53 223 5.0 14.0 0.00 0.00 0.00 34 1019.4
20260508002806 53 232 4.0 14.0 0.00 0.00 0.00 35 1019.3
20260508002307 53 253 4.0 9.0 0.00 0.00 0.00 35 1019.3
20260508001801 53 246 3.0 8.0 0.00 0.00 0.00 35 1019.3
20260508001254 53 241 2.0 6.0 0.00 0.00 0.00 36 1019.3
20260508001019 53 300 2.0 9.0 0.00 0.00 0.00 34 1019.3
20260508000243 53 286 3.0 9.0 0.00 0.00 0.00 33 1019.7
20260507235738 53 206 3.0 7.0 0.00 0.00 0.00 35 1019.4
20260507235510 54 215 3.0 12.0 0.00 0.00 0.00 35 1019.4
20260507234736 54 198 4.0 12.0 0.00 0.00 0.00 34 1019.4
20260507234236 54 209 5.0 12.0 0.00 0.00 0.00 33 1019.4
20260507234007 55 289 6.0 14.0 0.00 0.00 0.00 33 1019.3
20260507233237 55 213 7.0 15.0 0.00 0.00 0.00 32 1019.3
20260507232738 55 227 7.0 16.0 0.00 0.00 0.00 32 1019.4
20260507232236 56 263 6.0 16.0 0.00 0.00 0.00 32 1019.3
20260507231735 56 241 5.0 15.0 0.00 0.00 0.00 32 1019.1
20260507231237 56 202 4.0 10.0 0.00 0.00 0.00 31 1019.1
20260507230736 56 290 4.0 11.0 0.00 0.00 0.00 31 1019.1
20260507230235 56 172 3.0 11.0 0.00 0.00 0.00 31 1019.3
20260507225735 56 223 3.0 11.0 0.00 0.00 0.00 34 1019.3
20260507225234 56 5 5.0 12.0 0.00 0.00 0.00 35 1019.1
20260507224735 56 213 4.0 12.0 0.00 0.00 0.00 32 1019.1
20260507224513 56 273 3.0 8.0 0.00 0.00 0.00 34 1019.3
20260507223736 55 206 3.0 8.0 0.00 0.00 0.00 34 1019.3
20260507223229 55 217 3.0 15.0 0.00 0.01 0.00 35 1019.4
20260507222723 55 320 3.0 15.0 0.00 0.01 0.00 34 1019.4
20260507222218 56 282 3.0 8.0 0.00 0.01 0.00 33 1019.3
20260507221712 56 294 3.0 11.0 0.00 0.01 0.00 35 1019.5
20260507221206 56 202 4.0 11.0 0.00 0.01 0.00 36 1019.4
20260507220659 56 180 5.0 12.0 0.00 0.01 0.00 37 1019.4
20260507220154 56 204 4.0 12.0 0.00 0.02 0.00 35 1019.5
20260507215647 56 271 3.0 12.0 0.00 0.02 0.00 35 1019.7
20260507215142 55 227 3.0 12.0 0.00 0.02 0.00 36 1019.9
20260507214636 54 240 3.0 10.0 0.00 0.02 0.00 38 1019.8
20260507214130 54 232 3.0 10.0 0.00 0.02 0.00 38 1019.8
20260507213857 54 355 4.0 9.0 0.00 0.02 0.00 35 1019.9
20260507213353 55 208 5.0 11.0 0.00 0.03 0.00 33 1019.9
20260507212611 56 271 5.0 11.0 0.00 0.03 0.00 37 1019.9
20260507212114 56 292 4.0 12.0 0.00 0.03 0.00 36 1019.9
20260507211600 55 176 5.0 12.0 0.00 0.04 0.00 37 1020.2
20260507211053 55 227 4.0 11.0 0.00 0.04 0.00 36 1020.2
20260507210547 56 236 3.0 9.0 0.00 0.04 0.00 35 1020.2
20260507210042 56 27 3.0 9.0 0.00 0.04 0.00 36 1020.2
20260507205544 56 5 3.0 9.0 0.00 0.04 0.00 41 1020.2
20260507205036 55 42 3.0 9.0 0.00 0.05 0.00 41 1020.2
20260507204528 54 262 3.0 10.0 0.00 0.05 0.00 41 1020.3
20260507204023 53 281 3.0 11.0 0.00 0.05 0.00 42 1020.3
20260507203517 53 216 2.0 10.0 0.00 0.06 0.00 41 1020.3
20260507203010 53 107 1.0 10.0 0.00 0.06 0.00 42 1020.5
20260507202459 53 194 3.0 10.0 0.00 0.06 0.00 41 1020.5
20260507201954 53 196 5.0 10.0 0.00 0.07 0.00 40 1020.5
20260507201447 53 229 6.0 13.0 0.00 0.08 0.00 41 1020.5
20260507200942 53 241 7.0 13.0 0.00 0.08 0.00 41 1020.6
20260507200436 53 256 5.0 12.0 0.00 0.08 0.00 42 1020.5
20260507195930 52 252 4.0 10.0 0.00 0.08 0.00 40 1020.7
20260507195423 53 181 3.0 11.0 0.00 0.08 0.00 39 1020.7
20260507195148 51 184 3.0 8.0 0.00 0.08 0.00 49 1020.8
20260507194412 51 267 4.0 8.0 0.00 0.08 0.00 43 1020.8
20260507193906 50 248 2.0 6.0 0.00 0.08 0.00 48 1021.0
20260507193400 49 295 1.0 4.0 0.00 0.08 0.00 44 1020.8
20260507192854 48 260 2.0 8.0 0.00 0.08 0.00 44 1021.0
20260507192621 48 217 3.0 8.0 0.00 0.08 0.00 44 1021.1
20260507191848 47 198 3.0 8.0 0.00 0.08 0.00 43 1021.1
20260507191347 47 233 4.0 8.0 0.00 0.08 0.00 46 1021.2
20260507190849 47 187 3.0 6.0 0.00 0.08 0.00 45 1021.2
20260507190348 47 215 4.0 6.0 0.00 0.08 0.00 46 1021.2
20260507185848 47 221 4.0 7.0 0.00 0.08 0.00 47 1021.4
20260507185347 47 213 3.0 7.0 0.00 0.08 0.00 49 1021.4
20260507185120 47 253 2.0 9.0 0.00 0.08 0.00 48 1021.5
20260507184347 46 244 2.0 9.0 0.00 0.08 0.00 50 1021.5
20260507183847 46 277 2.0 7.0 0.00 0.08 0.00 50 1021.6
20260507183348 45 198 3.0 9.0 0.00 0.08 0.00 48 1021.6
20260507182849 45 239 4.0 9.0 0.00 0.08 0.00 50 1021.6
20260507182347 45 232 4.0 9.0 0.00 0.08 0.00 50 1021.6
20260507181850 45 238 3.0 10.0 0.00 0.08 0.00 48 1021.6
20260507181349 46 225 4.0 10.0 0.00 0.08 0.00 50 1021.5
20260507180850 46 238 4.0 10.0 0.00 0.09 0.00 48 1021.6
20260507180350 46 231 3.0 10.0 0.00 0.09 0.00 48 1021.6
20260507175844 46 227 3.0 8.0 0.00 0.09 0.00 48 1021.5
20260507175345 46 237 3.0 8.0 0.00 0.09 0.00 49 1021.5
20260507174844 47 229 2.0 7.0 0.00 0.09 0.00 49 1021.5
20260507174343 47 302 3.0 7.0 0.00 0.09 0.00 48 1021.5
20260507173843 47 250 3.0 7.0 0.00 0.09 0.00 47 1021.6
20260507173343 48 229 3.0 9.0 0.00 0.09 0.00 46 1021.6
20260507172844 48 269 3.0 9.0 0.00 0.09 0.00 46 1021.6
20260507172344 49 208 2.0 7.0 0.00 0.09 0.00 46 1021.6
20260507171844 49 9 2.0 6.0 0.00 0.09 0.00 47 1021.6
20260507171339 49 183 3.0 10.0 0.00 0.09 0.00 47 1021.9
20260507170839 49 198 3.0 10.0 0.00 0.09 0.00 50 1021.8
20260507170339 49 263 4.0 10.0 0.00 0.09 0.00 50 1021.8
20260507165840 49 265 4.0 10.0 0.00 0.09 0.00 49 1021.9
20260507165339 48 225 4.0 10.0 0.00 0.09 0.00 47 1021.9
20260507165111 48 333 4.0 9.0 0.00 0.09 0.00 54 1022.0
20260507164340 47 102 3.0 9.0 0.00 0.09 0.00 51 1022.0
20260507163840 47 292 3.0 11.0 0.00 0.09 0.00 52 1022.2
20260507163340 47 5 3.0 11.0 0.00 0.09 0.00 51 1022.0
20260507162841 46 236 3.0 10.0 0.00 0.09 0.00 53 1022.2
20260507162340 46 269 4.0 14.0 0.00 0.09 0.00 53 1022.2
20260507161839 45 265 4.0 14.0 0.00 0.09 0.00 55 1022.2
20260507161340 45 239 3.0 11.0 0.00 0.09 0.00 53 1022.3
20260507160840 44 183 4.0 11.0 0.00 0.09 0.00 54 1022.3
20260507160340 43 233 4.0 9.0 0.00 0.09 0.00 56 1022.3
20260507155841 43 246 4.0 10.0 0.00 0.09 0.00 54 1022.2
20260507155611 42 252 5.0 10.0 0.00 0.09 0.00 56 1022.3
20260507154839 41 222 5.0 10.0 0.00 0.09 0.00 55 1022.3
20260507154341 41 218 5.0 10.0 0.00 0.09 0.00 53 1022.3
20260507153841 41 212 5.0 12.0 0.00 0.09 0.00 55 1022.3
20260507153342 40 227 5.0 12.0 0.00 0.09 0.00 55 1022.4
20260507152839 40 264 5.0 12.0 0.00 0.09 0.00 56 1022.3
20260507152340 40 237 5.0 12.0 0.00 0.09 0.00 55 1022.3
20260507151834 39 225 5.0 10.0 0.00 0.09 0.00 56 1022.3
20260507151328 39 248 5.0 10.0 0.00 0.09 0.00 54 1022.4
20260507150821 38 196 6.0 11.0 0.00 0.09 0.00 56 1022.4
20260507150316 38 202 6.0 11.0 0.00 0.09 0.00 57 1022.6
20260507145808 37 253 6.0 11.0 0.00 0.09 0.00 58 1022.4
20260507145309 37 219 6.0 10.0 0.00 0.09 0.00 56 1022.4
20260507144755 37 215 6.0 10.0 0.00 0.09 0.00 59 1022.6
20260507144249 36 228 7.0 11.0 0.00 0.09 0.00 58 1022.6
20260507143743 35 252 6.0 11.0 0.00 0.09 0.00 58 1022.6
20260507143507 35 265 5.0 10.0 0.00 0.09 0.00 59 1022.6
20260507142731 34 215 5.0 9.0 0.00 0.09 0.00 60 1022.6
20260507142455 34 244 5.0 11.0 0.00 0.09 0.00 62 1022.6
20260507141718 33 236 5.0 11.0 0.00 0.09 0.00 63 1022.6
20260507141444 33 225 6.0 11.0 0.00 0.09 0.00 63 1022.6
20260507140706 32 255 6.0 11.0 0.00 0.09 0.00 65 1022.6
20260507140200 31 233 6.0 9.0 0.00 0.09 0.00 67 1022.4
20260507135655 31 236 5.0 11.0 0.00 0.09 0.00 69 1022.6
20260507135149 29 253 3.0 10.0 0.00 0.09 0.00 74 1022.4
20260507134643 28 238 2.0 5.0 0.00 0.09 0.00 78 1022.4
20260507134137 27 242 2.0 5.0 0.00 0.09 0.00 83 1022.4
20260507133630 26 241 2.0 5.0 0.00 0.09 0.00 86 1022.4
20260507133125 24 227 1.0 4.0 0.00 0.09 0.00 88 1022.4
20260507132619 24 227 1.0 4.0 0.00 0.09 0.00 89 1022.4
20260507132112 23 243 2.0 4.0 0.00 0.09 0.00 89 1022.3
20260507131606 22 219 2.0 4.0 0.00 0.09 0.00 91 1022.3
20260507131331 21 226 1.0 4.0 0.00 0.09 0.00 91 1022.3
20260507130556 21 355 0.0 0.0 0.00 0.09 0.00 92 1022.3
20260507130050 21 355 0.0 0.0 0.00 0.09 0.00 92 1022.4
20260507125817 20 355 0.0 0.0 0.00 0.09 0.00 92 1022.3
20260507125039 20 355 0.0 0.0 0.00 0.09 0.00 92 1022.2
20260507124535 19 355 0.0 0.0 0.00 0.09 0.00 92 1022.2
20260507124255 18 355 0.0 0.0 0.00 0.09 0.00 91 1022.2
20260507123518 17 355 0.0 1.0 0.00 0.09 0.00 91 1022.0
20260507123014 17 355 0.0 1.0 0.00 0.09 0.00 90 1021.9
20260507122506 17 355 0.0 2.0 0.00 0.09 0.00 89 1021.9
20260507122002 16 355 1.0 2.0 0.00 0.09 0.00 88 1021.8
20260507121456 17 355 1.0 3.0 0.00 0.09 0.00 88 1021.8
20260507120949 17 355 1.0 3.0 0.00 0.09 0.00 88 1021.6
20260507120443 17 355 1.0 3.0 0.00 0.09 0.00 88 1021.6
20260507115936 17 355 1.0 3.0 0.00 0.09 0.00 88 1021.5
20260507115430 17 355 0.0 0.0 0.00 0.09 0.00 88 1021.5
20260507114931 17 355 1.0 3.0 0.00 0.09 0.00 88 1021.6
20260507114420 17 355 1.0 3.0 0.00 0.09 0.00 88 1021.6
20260507113913 17 355 0.0 2.0 0.00 0.09 0.00 88 1021.6
20260507113407 17 355 1.0 3.0 0.00 0.09 0.00 88 1021.5
20260507112902 17 355 2.0 3.0 0.00 0.09 0.00 88 1021.5
20260507112355 17 355 1.0 3.0 0.00 0.09 0.00 88 1021.5
20260507111849 17 355 1.0 4.0 0.00 0.09 0.00 88 1021.6
20260507111342 17 355 1.0 4.0 0.00 0.09 0.00 88 1021.6
20260507110836 17 355 0.0 0.0 0.00 0.09 0.00 88 1021.6
20260507110330 17 355 0.0 0.0 0.00 0.09 0.00 87 1021.6
20260507105825 17 355 0.0 0.0 0.00 0.09 0.00 87 1021.6
20260507105320 17 355 0.0 0.0 0.00 0.09 0.00 87 1021.6
20260507104813 17 355 0.0 0.0 0.00 0.09 0.00 87 1021.6
20260507104308 18 355 0.0 0.0 0.00 0.09 0.00 87 1021.5
20260507104034 18 355 0.0 0.0 0.00 0.09 0.00 87 1021.4
20260507103255 18 355 0.0 0.0 0.00 0.09 0.00 87 1021.4
20260507102753 18 355 0.0 0.0 0.00 0.09 0.00 87 1021.4
20260507102250 18 355 0.0 0.0 0.00 0.09 0.00 87 1021.4
20260507101750 18 355 0.0 0.0 0.00 0.09 0.00 87 1021.4
20260507101251 18 355 0.0 0.0 0.00 0.09 0.00 87 1021.4
20260507100748 18 355 0.0 0.0 0.00 0.09 0.00 87 1021.4
20260507100248 18 355 0.0 0.0 0.00 0.09 0.00 86 1021.6
20260507095749 19 355 0.0 0.0 0.00 0.09 0.00 86 1021.6
20260507095248 19 355 0.0 0.0 0.00 0.09 0.00 85 1021.8
20260507094749 19 355 0.0 0.0 0.00 0.09 0.00 85 1021.8
20260507093748 19 355 0.0 0.0 0.00 0.09 0.00 85 1021.6
20260507093248 19 355 0.0 0.0 0.00 0.09 0.00 85 1021.6
20260507092744 20 355 0.0 0.0 0.00 0.09 0.00 85 1021.6
20260507092247 20 355 0.0 0.0 0.00 0.09 0.00 85 1021.8
20260507091744 20 355 0.0 0.0 0.00 0.09 0.00 85 1021.9
20260507091245 20 355 0.0 0.0 0.00 0.09 0.00 85 1021.8
20260507091014 20 355 0.0 0.0 0.00 0.09 0.00 85 1021.8
20260507090240 20 355 0.0 0.0 0.00 0.09 0.00 85 1021.9
20260507090016 20 355 0.0 0.0 0.00 0.09 0.00 85 1021.9
20260507085240 20 355 0.0 0.0 0.00 0.09 0.00 85 1022.0
20260507084741 20 355 0.0 0.0 0.00 0.09 0.00 85 1022.0
20260507084240 20 355 0.0 0.0 0.00 0.09 0.00 86 1022.0
20260507083742 20 355 0.0 0.0 0.00 0.09 0.00 86 1022.0
20260507083241 20 355 0.0 0.0 0.00 0.09 0.00 86 1021.9
20260507082742 20 355 0.0 0.0 0.00 0.09 0.00 86 1021.9
20260507082240 20 355 0.0 0.0 0.00 0.09 0.00 86 1021.9
20260507081741 20 355 0.0 0.0 0.00 0.09 0.00 86 1021.9
20260507081240 20 355 0.0 0.0 0.00 0.09 0.00 86 1021.9
20260507080743 20 355 0.0 0.0 0.00 0.09 0.00 87 1021.9
20260507080516 20 355 0.0 0.0 0.00 0.09 0.00 87 1021.9
20260507075740 20 355 0.0 2.0 0.00 0.09 0.00 87 1021.9
20260507075240 20 355 1.0 3.0 0.00 0.09 0.00 88 1021.9
20260507074742 20 355 1.0 3.0 0.00 0.09 0.00 88 1022.0
20260507074239 20 231 0.0 0.0 0.00 0.09 0.00 88 1021.9
20260507073732 20 231 0.0 0.0 0.00 0.09 0.00 88 1021.9
20260507073227 20 231 0.0 0.0 0.00 0.09 0.00 88 1022.0
20260507072721 20 231 0.0 2.0 0.00 0.09 0.00 88 1021.9
20260507072216 20 231 0.0 2.0 0.00 0.09 0.00 88 1021.9
20260507071708 20 231 0.0 2.0 0.00 0.09 0.00 89 1021.8
20260507071203 20 231 0.0 3.0 0.00 0.09 0.00 89 1021.6
20260507070656 20 231 0.0 3.0 0.00 0.09 0.00 89 1021.6
20260507070151 20 251 0.0 0.0 0.00 0.09 0.00 89 1021.5
20260507065645 20 251 0.0 0.0 0.00 0.09 0.00 88 1021.5
20260507065139 20 251 0.0 0.0 0.00 0.09 0.00 88 1021.5
20260507064634 20 251 0.0 0.0 0.00 0.09 0.00 89 1021.5
20260507064126 20 251 0.0 0.0 0.00 0.09 0.00 89 1021.5
20260507063622 20 251 0.0 0.0 0.00 0.09 0.00 89 1021.5
20260507063114 20 251 0.0 0.0 0.00 0.09 0.00 89 1021.5
20260507062608 20 251 0.0 0.0 0.00 0.09 0.00 89 1021.5
20260507062100 20 251 0.0 0.0 0.00 0.09 0.00 89 1021.4
20260507061556 20 251 0.0 0.0 0.00 0.09 0.00 89 1021.4
20260507061048 20 251 0.0 0.0 0.00 0.09 0.00 89 1021.5
20260507060543 20 251 0.0 0.0 0.00 0.09 0.00 89 1021.2
20260507060037 20 251 0.0 0.0 0.00 0.09 0.00 88 1021.2
20260507055538 20 251 0.0 0.0 0.00 0.09 0.09 88 1021.2
20260507055031 21 251 0.0 0.0 0.00 0.09 0.09 88 1021.1
20260507054519 21 251 0.0 0.0 0.00 0.09 0.09 88 1021.1
20260507054250 21 251 0.0 0.0 0.00 0.09 0.09 87 1021.1
20260507053507 21 251 0.0 0.0 0.00 0.09 0.09 87 1021.1
20260507053001 21 251 0.0 0.0 0.00 0.09 0.09 87 1021.1
20260507052726 21 251 0.0 0.0 0.00 0.09 0.09 87 1020.8
20260507051952 21 251 0.0 0.0 0.00 0.09 0.09 87 1020.8
20260507051444 21 251 0.0 0.0 0.00 0.09 0.09 87 1020.8
20260507050937 22 251 0.0 0.0 0.00 0.09 0.09 87 1020.7
20260507050432 22 251 0.0 0.0 0.00 0.09 0.09 87 1020.7
20260507045925 22 251 0.0 0.0 0.00 0.09 0.09 87 1020.6
20260507045419 22 251 0.0 0.0 0.00 0.09 0.09 86 1020.7
20260507045144 22 251 0.0 0.0 0.00 0.09 0.09 86 1020.6
20260507044408 22 251 0.0 0.0 0.00 0.09 0.09 86 1020.7
20260507043904 23 251 0.0 0.0 0.00 0.09 0.09 86 1020.7
20260507043628 23 251 0.0 0.0 0.00 0.09 0.09 86 1020.6
20260507042850 23 251 0.0 0.0 0.00 0.09 0.09 86 1020.6
20260507042614 23 251 0.0 0.0 0.00 0.09 0.09 86 1020.6
20260507041837 24 251 0.0 0.0 0.00 0.09 0.09 86 1020.6
20260507041332 24 251 0.0 0.0 0.00 0.09 0.09 86 1020.6
20260507040826 24 251 0.0 0.0 0.00 0.09 0.09 86 1020.5
20260507040322 24 251 0.0 0.0 0.00 0.09 0.09 86 1020.6
20260507035822 24 251 0.0 0.0 0.00 0.09 0.09 86 1020.6
20260507035321 24 251 0.0 0.0 0.00 0.09 0.09 86 1020.6
20260507034818 25 251 0.0 0.0 0.00 0.09 0.09 86 1020.5
20260507034319 25 251 0.0 0.0 0.00 0.09 0.09 86 1020.5
20260507033819 25 251 0.0 0.0 0.00 0.09 0.09 86 1020.5
20260507033319 25 251 0.0 0.0 0.00 0.09 0.09 86 1020.3
20260507032818 26 251 0.0 0.0 0.00 0.09 0.09 86 1020.3
20260507032051 26 251 0.0 0.0 0.00 0.09 0.09 85 1020.1
20260507031312 26 251 0.0 0.0 0.00 0.09 0.09 86 1020.2
20260507030812 26 251 0.0 0.0 0.00 0.09 0.09 86 1020.1
20260507030315 26 251 0.0 0.0 0.00 0.09 0.09 86 1020.1
20260507025812 26 251 0.0 0.0 0.00 0.09 0.09 86 1019.9
20260507025315 27 251 0.0 2.0 0.00 0.09 0.09 85 1019.9
20260507024809 27 251 0.0 2.0 0.00 0.09 0.09 85 1019.9
20260507024309 27 251 1.0 3.0 0.00 0.09 0.09 85 1019.8
20260507023808 27 251 1.0 3.0 0.00 0.09 0.09 85 1019.8